CW7412 Weather Reports


time (UTC)temp
C
wind
direction
speed
KPH
gust
KPH
rain 1hr
cm
rain 24hr
cm
rain mn
cm
humidity
%
barometer
mb
20260905183204 32 112 11.3 11.3 0.00 0.00 0.00 49 1015.6
20260905180204 31 112 11.3 11.3 0.00 0.00 0.00 52 1016.8
20260905174704 28 112 11.3 11.3 0.00 0.00 0.00 71 1016.8
20260905174203 28 112 11.3 11.3 0.00 0.00 0.00 71 1016.8
20260905173704 28 112 11.3 11.3 0.00 0.00 0.00 71 1016.8
20260905171204 28 112 11.3 11.3 0.00 0.00 0.00 71 1016.8
20260905170704 28 112 11.3 11.3 0.00 0.00 0.00 71 1016.8
20260905164704 28 112 11.3 11.3 0.00 0.00 0.00 71 1016.8
20260905163704 28 112 11.3 11.3 0.00 0.00 0.00 71 1016.8
20260905163204 28 112 11.3 11.3 0.00 0.00 0.00 71 1016.8
20260905161704 28 112 11.3 11.3 0.00 0.00 0.00 71 1016.8
20260905161204 28 112 11.3 11.3 0.00 0.00 0.00 71 1016.8
20260905160704 28 112 11.3 11.3 0.00 0.00 0.00 71 1016.8
20260905154204 28 112 11.3 11.3 0.00 0.00 0.00 71 1016.8
20260905150203 28 112 11.3 11.3 0.00 0.00 0.00 71 1017.2
20260905144204 28 112 11.3 11.3 0.00 0.00 0.00 71 1017.0
20260905141204 27 295 3.2 4.8 0.00 0.00 0.00 79 1016.5
20260905140704 27 231 0.0 1.6 0.00 0.00 0.00 81 1016.5
20260905134703 25 283 0.0 0.0 0.00 0.00 0.00 86 1016.3
20260905131205 23 158 0.0 0.0 0.00 0.00 0.00 90 1016.5
20260905130204 23 166 0.0 0.0 0.00 0.00 0.00 92 1016.5
20260905124704 23 156 0.0 0.0 0.00 0.00 0.00 93 1016.5
20260905121704 21 145 0.0 0.0 0.00 0.00 0.00 95 1016.3
20260905121204 21 151 0.0 0.0 0.00 0.00 0.00 95 1016.2
20260905120708 21 56 0.0 0.0 0.00 0.00 0.00 95 1016.2
20260905114704 21 158 0.0 0.0 0.00 0.00 0.00 95 1016.0
20260905114204 21 48 0.0 0.0 0.00 0.00 0.00 95 1016.0
20260905113204 21 328 0.0 0.0 0.00 0.00 0.00 95 1015.8
20260905104704 21 112 0.0 0.0 0.00 0.00 0.00 95 1015.5
20260905104204 21 64 0.0 0.0 0.00 0.00 0.00 95 1015.5
20260905103704 21 112 0.0 0.0 0.00 0.00 0.00 95 1015.3
20260905101704 21 133 0.0 0.0 0.00 0.00 0.00 95 1015.3
20260905100704 21 58 0.0 0.0 0.00 0.00 0.00 95 1015.3
20260905094204 21 265 0.0 0.0 0.00 0.00 0.00 95 1015.2
20260905091204 21 270 0.0 0.0 0.00 0.00 0.00 95 1015.1
20260905090703 21 90 0.0 0.0 0.00 0.00 0.00 95 1015.1
20260905083704 21 68 0.0 0.0 0.00 0.00 0.00 95 1015.0
20260905083204 21 90 0.0 0.0 0.00 0.00 0.00 95 1015.0
20260905081704 21 99 0.0 0.0 0.00 0.00 0.00 95 1015.0
20260905080704 21 135 0.0 0.0 0.00 0.00 0.00 95 1015.0
20260905080204 21 202 0.0 0.0 0.00 0.00 0.00 95 1015.2
20260905074704 21 158 0.0 0.0 0.00 0.00 0.00 95 1015.3
20260905073704 21 112 0.0 0.0 0.00 0.00 0.00 95 1015.5
20260905073204 21 66 0.0 0.0 0.00 0.00 0.00 95 1015.5
20260905071204 21 157 0.0 0.0 0.00 0.00 0.00 95 1015.7
20260905070704 21 225 0.0 0.0 0.00 0.00 0.00 95 1015.7
20260905070204 22 135 0.0 0.0 0.00 0.00 0.00 95 1015.8
20260905064204 22 253 0.0 0.0 0.00 0.00 0.00 95 1015.8
20260905061203 22 112 0.0 0.0 0.00 0.00 0.00 94 1016.2
20260905060704 22 138 0.0 0.0 0.00 0.00 0.00 94 1016.2
20260905060204 22 180 0.0 0.0 0.00 0.00 0.00 94 1016.3
20260905054703 22 112 0.0 0.0 0.00 0.00 0.00 94 1016.3